#timestamp,LO_Frequency,Hit,StdDev 
1503320415.5,286046998.5,N,1.2
1503320435.3,286047000.8,N,1.2
1503320455.1,286047002.4,N,1.3
1503320475.9,286047001.4,N,1.3
1503320495.7,286047002.1,N,1.3
1503320515.6,286047002.3,N,1.3
1503320535.4,286047002.6,N,1.4
1503320555.2,286047002.6,N,1.4
1503320575.1,286047002.6,N,1.4
1503320576.0,286047002.6,N,1.4
1503320595.8,286047000.5,N,1.4
1503320615.7,286047002.4,N,1.4
1503320635.5,286047002.8,N,1.5
1503320655.3,286047002.3,N,1.4
1503320675.2,286047001.9,N,1.4
1503320695.0,286047004.3,N,1.6
1503320695.9,286047004.3,N,1.6
1503320715.8,286047004.4,N,1.6
1503320735.6,286047003.6,N,1.6
1503320755.5,286047003.6,N,1.6
1503320775.3,286047003.2,N,1.7
1503320795.1,286047003.9,N,1.7
1503320815.9,286047004.4,N,1.7
1503320835.7,286047003.4,N,1.7
1503320855.5,286047004.2,N,1.7
1503320875.4,286047003.2,N,1.7
1503320895.2,286047003.0,N,1.6
1503320915.1,286047006.0,Y,0.0
1503320916.0,286047006.0,P,1.8
1503320935.8,286047001.3,N,2.0
1503320955.6,286047003.4,N,1.7
1503320975.5,286047003.8,N,1.6
1503320995.3,286047003.9,N,1.4
1503321015.2,286047004.3,N,1.4
1503321035.0,286047002.9,N,1.3
1503321035.9,286047002.9,N,1.2
1503321055.8,286047005.2,Y,0.0
1503321075.6,286047002.1,P,0.7
1503321095.4,286047001.4,N,0.8
1503321115.3,286047001.9,N,0.8
1503321135.1,286047004.4,Y,0.0
1503321155.9,286047001.2,P,0.5
1503321175.7,286046999.4,N,1.2
1503321195.5,286046999.2,N,1.3
1503321215.4,286046998.5,N,1.4
1503321235.2,286046998.6,N,1.4
1503321255.0,286046998.1,N,1.4
1503321255.9,286046998.1,N,1.4
1503321275.8,286046998.9,N,1.3
1503321295.6,286046998.9,N,1.3
1503321315.5,286047001.2,N,1.3
1503321335.3,286047000.4,N,1.3
1503321355.1,286047000.2,N,1.3
1503321375.9,286047000.9,N,1.3
1503321395.7,286047001.2,N,1.3
1503321415.6,286047000.5,N,1.2
1503321435.4,286047000.8,N,1.2
1503321455.2,286047000.7,N,1.2
1503321475.1,286046998.1,N,1.2
1503321476.0,286046998.1,N,1.3
1503321495.8,286046998.7,N,1.3
1503321515.6,286046998.4,N,1.3
1503321535.5,286046998.1,N,1.3
1503321555.3,286047000.3,N,1.3
1503321575.2,286047000.2,N,1.2
1503321595.9,286047000.0,N,1.2
1503321615.7,286046999.7,N,1.2
1503321635.6,286047000.2,N,1.2
1503321655.4,286047000.6,N,1.2
1503321675.3,286047001.1,N,1.2
1503321695.1,286046998.2,N,1.1
1503321696.0,286046998.2,N,1.1
1503321715.8,286047001.1,N,1.1
1503321735.7,286047011.9,Y,0.0
1503321755.5,286047000.6,P,0.5
1503321775.4,286047002.8,P,1.3
1503321795.2,286047002.3,N,1.3
1503321815.0,286046999.7,N,1.3
1503321815.9,286046999.7,N,1.3
1503321835.8,286047002.8,N,1.4
1503321855.6,286047001.7,N,1.3
1503321875.5,286047002.5,N,1.3
1503321895.3,286047002.1,N,1.3
1503321915.1,286047002.2,N,1.2
1503321935.9,286047001.5,N,1.2
1503321955.7,286047001.6,N,1.1
1503321975.6,286047001.8,N,1.1
1503321995.4,286047004.0,Y,0.0
1503322015.2,286047002.5,P,0.5
1503322035.1,286047001.6,P,0.5
1503322036.0,286047001.6,P,0.4
1503322055.8,286047001.9,Y,0.0
1503322075.7,286046998.6,P,1.6
1503322095.5,286047000.8,N,1.3
1503322115.3,286046998.6,N,1.4
1503322135.2,286046998.5,N,1.4
1503322155.0,286047000.7,N,1.3
1503322155.9,286047000.7,N,1.3
1503322175.8,286046998.1,N,1.3
1503322195.6,286046999.3,N,1.3
1503322215.4,286046998.8,N,1.2
1503322235.3,286046999.0,N,1.2
1503322255.1,286046998.8,N,1.1
1503322275.9,286046998.2,N,1.1
1503322295.7,286046998.3,N,1.1
1503322315.5,286046999.4,N,1.1
1503322335.4,286046998.9,N,1.1
1503322355.2,286046998.5,N,1.1
1503322375.0,286046998.6,N,1.0
1503322376.0,286046998.6,N,1.0
1503322395.8,286046998.5,N,1.0
1503322415.6,286047001.0,N,1.1
1503322435.5,286047001.1,N,1.1
1503322455.3,286047000.7,N,1.1
1503322475.1,286047000.9,N,1.1
1503322495.9,286047001.2,N,1.2
1503322515.7,286046998.2,N,1.2
1503322535.6,286046998.1,N,1.2
1503322555.4,286046998.6,N,1.2
1503322575.2,286047000.7,N,1.2
1503322595.1,286047000.1,N,1.2
1503322596.0,286047000.1,N,1.1
1503322615.8,286047001.0,N,1.1
1503322635.7,286047000.0,N,1.1
1503322655.5,286047000.2,N,1.1
1503322675.3,286047000.0,N,1.1
1503322695.2,286047000.8,N,1.1
1503322715.0,286046998.6,N,1.1
1503322715.9,286046998.6,N,1.0
1503322735.8,286046998.1,N,1.1
1503322755.6,286047000.5,N,1.1
1503322775.4,286047000.2,N,1.1
1503322795.3,286046999.9,N,1.1
1503322815.1,286047000.3,N,1.1
1503322835.8,286046999.9,N,1.0
1503322855.7,286047000.0,N,1.0
1503322875.5,286046999.9,N,1.0
1503322895.4,286046999.9,N,1.0
1503322915.2,286047000.4,N,1.0
1503322935.0,286046998.2,N,1.0
1503322935.9,286046998.2,N,1.0
1503322955.8,286046999.3,N,1.0
1503322975.6,286046998.5,N,1.0
1503322995.5,286046998.7,N,1.0
1503323015.3,286046999.3,N,0.9
1503323035.1,286046999.5,N,0.9
1503323055.9,286046996.5,Y,0.0
1503323075.7,286046999.1,P,0.2
1503323095.6,286046999.6,N,0.2
1503323115.4,286046998.6,P,0.4
1503323135.2,286046998.9,N,0.4
1503323155.1,286046998.3,Y,0.0
1503323156.0,286046998.3,P,0.4
1503323175.8,286047001.0,N,1.1
1503323195.7,286047000.7,N,1.1
1503323215.5,286046999.9,N,1.0
1503323235.3,286047000.4,N,0.9
1503323255.2,286047000.3,N,0.9
1503323275.0,286047000.9,N,0.9
1503323275.9,286047000.9,N,0.9
1503323295.8,286046998.6,N,0.9
1503323315.6,286047000.7,N,0.9
1503323335.4,286047000.6,N,0.9
1503323355.3,286047000.0,N,0.9
1503323375.1,286047000.1,N,0.8
1503323395.9,286047002.8,Y,0.0
1503323415.7,286047000.3,P,0.1
1503323435.5,286047001.0,P,0.4
1503323455.4,286046998.9,N,0.8
1503323475.2,286046996.5,Y,0.0
1503323495.1,286046998.7,P,0.7
1503323496.0,286046998.7,N,0.6
1503323515.8,286046998.7,N,0.6
1503323535.6,286047000.6,N,0.8
1503323555.5,286046998.5,N,0.8
1503323575.3,286047002.4,N,1.3
1503323595.2,286046999.7,N,1.3
1503323615.9,286047000.3,N,1.2
1503323635.7,286046999.7,N,1.1
1503323655.6,286047000.1,N,1.1
1503323675.4,286047002.1,N,1.2
1503323695.3,286047002.2,N,1.3
1503323715.1,286047000.2,N,1.3
1503323716.0,286047000.2,N,1.2
1503323735.8,286046999.9,N,1.2
1503323755.7,286047001.0,N,1.2
1503323775.5,286046998.3,N,1.2
1503323795.4,286046998.2,N,1.3
1503323815.2,286046998.5,N,1.3
1503323835.0,286047000.5,N,1.2
1503323835.9,286047000.5,N,1.2
1503323855.8,286046999.7,N,1.2
1503323875.6,286046999.7,N,1.2
1503323895.4,286046999.7,N,1.2
1503323915.3,286046999.9,N,1.1
1503323935.1,286046999.9,N,1.1
1503323955.9,286046999.9,N,1.1
1503323975.7,286046999.7,N,1.1
1503323995.5,286047000.2,N,1.1
